Вернуться в каталог

FENGYUN 1C DEB

АктивенPO
NORAD 31376·DEBRIS·🇨🇳 China

Запущен May 10, 1999 с Taiyuan Satellite Launch Center

Loading…

Ближайшие Пролёты (ближайшие 24 часа)

TLE

СвежийSource: Space-Track

Эпоха: Sep 14, 2026, 14:05 UTC

1 31376U 99025BSG 26257.58732026  .00005805  00000-0  10375-2 0  9996
2 31376  98.8384 198.9410 0046390 133.6198 226.8867 14.66629171 21776

Отслеживайте FENGYUN 1C DEB в реальном времени с AllMySat

Download on the App Store